TimeCST,TemperatureF,Dew PointF,Humidity,Sea Level PressureIn,VisibilityMPH,Wind Direction,Wind SpeedMPH,Gust SpeedMPH,PrecipitationIn,Events,Conditions,WindDirDegrees,DateUTC
12:15 AM,32.4,30.4,92,30.19,10.0,Calm,Calm,-,N/A,,Overcast,0,2012-11-04 05:15:00
12:35 AM,33.3,30.0,88,30.19,10.0,Calm,Calm,-,N/A,,Overcast,0,2012-11-04 05:35:00
12:55 AM,32.0,29.8,92,30.19,10.0,Calm,Calm,-,N/A,,Overcast,0,2012-11-04 05:55:00
1:15 AM,33.4,31.8,94,30.19,10.0,Calm,Calm,-,N/A,,Overcast,0,2012-11-04 06:15:00
1:35 AM,34.2,31.6,90,30.19,10.0,Calm,Calm,-,N/A,,Overcast,0,2012-11-04 06:35:00
1:55 AM,34.2,31.5,90,30.19,10.0,Calm,Calm,-,N/A,,Overcast,0,2012-11-04 06:55:00
1:15 AM,32.9,30.9,92,30.19,10.0,Calm,Calm,-,N/A,,Overcast,0,2012-11-04 07:15:00
1:35 AM,33.8,31.5,91,30.19,10.0,Calm,Calm,-,N/A,,Overcast,0,2012-11-04 07:35:00
1:55 AM,34.0,32.0,92,30.19,10.0,Calm,Calm,-,N/A,,Overcast,0,2012-11-04 07:55:00
2:15 AM,33.8,32.0,93,30.19,10.0,Calm,Calm,-,N/A,,Overcast,0,2012-11-04 08:15:00
2:35 AM,33.3,32.0,95,30.19,10.0,Calm,Calm,-,N/A,,Overcast,0,2012-11-04 08:35:00
2:55 AM,33.8,32.0,93,30.19,10.0,Calm,Calm,-,N/A,,Overcast,0,2012-11-04 08:55:00
3:15 AM,33.8,32.0,93,30.19,10.0,Calm,Calm,-,N/A,,Overcast,0,2012-11-04 09:15:00
3:35 AM,33.8,31.8,92,30.20,10.0,Calm,Calm,-,N/A,,Overcast,0,2012-11-04 09:35:00
3:55 AM,33.8,31.1,90,30.20,10.0,Calm,Calm,-,N/A,,Overcast,0,2012-11-04 09:55:00
4:15 AM,34.3,32.0,91,30.20,10.0,Calm,Calm,-,N/A,,Overcast,0,2012-11-04 10:15:00
4:35 AM,34.0,32.0,92,30.20,10.0,Calm,Calm,-,N/A,,Overcast,0,2012-11-04 10:35:00
4:55 AM,34.3,31.1,88,30.20,10.0,Calm,Calm,-,N/A,,Overcast,0,2012-11-04 10:55:00
5:15 AM,33.8,31.1,90,30.20,10.0,Calm,Calm,-,N/A,,Overcast,0,2012-11-04 11:15:00
5:35 AM,33.8,31.1,90,30.20,10.0,Calm,Calm,-,N/A,,Overcast,0,2012-11-04 11:35:00
5:55 AM,33.6,31.6,92,30.20,10.0,Calm,Calm,-,N/A,,Overcast,0,2012-11-04 11:55:00
6:15 AM,33.3,32.0,95,30.21,10.0,Calm,Calm,-,N/A,,Overcast,0,2012-11-04 12:15:00
6:35 AM,33.8,31.1,90,30.21,10.0,Calm,Calm,-,N/A,,Overcast,0,2012-11-04 12:35:00
6:55 AM,34.0,30.9,89,30.21,10.0,Calm,Calm,-,N/A,,Overcast,0,2012-11-04 12:55:00
7:15 AM,34.7,31.1,87,30.22,10.0,Calm,Calm,-,N/A,,Overcast,0,2012-11-04 13:15:00
7:35 AM,35.6,31.8,86,30.22,10.0,Calm,Calm,-,N/A,,Overcast,0,2012-11-04 13:35:00
7:55 AM,36.1,31.1,82,30.21,10.0,Calm,Calm,-,N/A,,Overcast,0,2012-11-04 13:55:00
8:15 AM,36.7,30.7,79,30.22,10.0,Calm,Calm,-,N/A,,Overcast,0,2012-11-04 14:15:00
8:35 AM,37.6,30.6,76,30.22,10.0,Calm,Calm,-,N/A,,Overcast,0,2012-11-04 14:35:00
8:55 AM,38.7,29.8,71,30.21,10.0,Calm,Calm,-,N/A,,Mostly Cloudy,0,2012-11-04 14:55:00
9:15 AM,39.2,29.7,69,30.21,10.0,Calm,Calm,-,N/A,,Overcast,0,2012-11-04 15:15:00
9:35 AM,39.2,29.1,67,30.21,10.0,Calm,Calm,-,N/A,,Overcast,0,2012-11-04 15:35:00
9:55 AM,38.7,28.9,68,30.22,10.0,Calm,Calm,-,N/A,,Overcast,0,2012-11-04 15:55:00
10:15 AM,39.2,28.9,67,30.22,10.0,Calm,Calm,-,N/A,,Overcast,0,2012-11-04 16:15:00
10:35 AM,39.4,29.1,67,30.21,10.0,Calm,Calm,-,N/A,,Overcast,0,2012-11-04 16:35:00
10:55 AM,39.7,28.8,65,30.21,10.0,Calm,Calm,-,N/A,,Overcast,0,2012-11-04 16:55:00
11:15 AM,40.5,29.5,65,30.21,10.0,Calm,Calm,-,N/A,,Overcast,0,2012-11-04 17:15:00
11:35 AM,40.3,29.3,65,30.20,10.0,Calm,Calm,-,N/A,,Overcast,0,2012-11-04 17:35:00
11:55 AM,41.2,30.0,65,30.19,10.0,NW,3.5,-,N/A,,Overcast,310,2012-11-04 17:55:00
12:15 PM,41.5,30.0,64,30.19,10.0,Calm,Calm,-,N/A,,Overcast,0,2012-11-04 18:15:00
12:35 PM,41.5,30.2,64,30.19,10.0,NW,3.5,-,N/A,,Overcast,320,2012-11-04 18:35:00
12:55 PM,41.9,30.2,63,30.18,10.0,North,4.6,-,N/A,,Overcast,10,2012-11-04 18:55:00
1:15 PM,42.1,30.7,64,30.18,10.0,North,6.9,-,N/A,,Overcast,350,2012-11-04 19:15:00
1:35 PM,42.3,30.2,62,30.17,10.0,NNW,5.8,-,N/A,,Overcast,330,2012-11-04 19:35:00
1:55 PM,42.3,30.9,64,30.17,10.0,North,5.8,-,N/A,,Overcast,360,2012-11-04 19:55:00
2:15 PM,42.3,31.5,66,30.18,10.0,North,8.1,-,N/A,,Overcast,350,2012-11-04 20:15:00
2:35 PM,41.4,31.6,68,30.18,10.0,North,10.4,-,N/A,,Overcast,350,2012-11-04 20:35:00
2:55 PM,40.6,31.8,71,30.18,10.0,North,3.5,-,N/A,,Overcast,10,2012-11-04 20:55:00
3:15 PM,40.5,31.6,71,30.18,10.0,North,5.8,-,N/A,,Mostly Cloudy,350,2012-11-04 21:15:00
3:35 PM,41.4,31.6,68,30.17,10.0,North,9.2,-,N/A,,Overcast,360,2012-11-04 21:35:00
3:55 PM,40.3,31.5,71,30.18,10.0,North,9.2,-,N/A,,Overcast,350,2012-11-04 21:55:00
4:15 PM,39.4,31.3,73,30.18,10.0,North,8.1,-,N/A,,Overcast,10,2012-11-04 22:15:00
4:35 PM,39.2,31.1,73,30.18,10.0,North,6.9,-,N/A,,Overcast,360,2012-11-04 22:35:00
4:55 PM,38.7,30.7,73,30.18,10.0,NNE,5.8,-,N/A,,Overcast,20,2012-11-04 22:55:00
5:15 PM,38.5,31.1,75,30.19,10.0,Calm,Calm,-,N/A,,Overcast,0,2012-11-04 23:15:00
5:35 PM,38.7,30.7,73,30.19,10.0,NNE,5.8,-,N/A,,Overcast,20,2012-11-04 23:35:00
5:55 PM,38.7,30.6,73,30.19,10.0,NE,5.8,-,N/A,,Overcast,40,2012-11-04 23:55:00
6:15 PM,38.5,30.6,73,30.19,10.0,NNE,4.6,-,N/A,,Overcast,30,2012-11-05 00:15:00
6:35 PM,37.6,29.5,73,30.19,10.0,NE,5.8,-,N/A,,Scattered Clouds,40,2012-11-05 00:35:00
6:55 PM,37.6,30.2,75,30.19,10.0,NNE,4.6,-,N/A,,Mostly Cloudy,20,2012-11-05 00:55:00
7:15 PM,36.7,29.7,76,30.18,10.0,NNE,5.8,-,N/A,,Overcast,30,2012-11-05 01:15:00
7:35 PM,36.5,28.9,74,30.18,10.0,Calm,Calm,-,N/A,,Mostly Cloudy,0,2012-11-05 01:35:00
7:55 PM,35.6,28.8,76,30.19,10.0,Calm,Calm,-,N/A,,Mostly Cloudy,0,2012-11-05 01:55:00
8:15 PM,32.2,28.4,86,30.19,10.0,East,3.5,-,N/A,,Scattered Clouds,80,2012-11-05 02:15:00
8:35 PM,32.0,28.9,88,30.19,10.0,Calm,Calm,-,N/A,,Mostly Cloudy,0,2012-11-05 02:35:00
8:55 PM,34.3,30.7,87,30.19,10.0,NE,3.5,-,N/A,,Overcast,50,2012-11-05 02:55:00
9:15 PM,35.1,28.2,76,30.19,10.0,Calm,Calm,-,N/A,,Mostly Cloudy,0,2012-11-05 03:15:00
9:35 PM,34.0,28.4,80,30.19,10.0,ENE,4.6,-,N/A,,Mostly Cloudy,70,2012-11-05 03:35:00
9:55 PM,34.9,27.9,76,30.19,10.0,ENE,3.5,-,N/A,,Overcast,60,2012-11-05 03:55:00
10:15 PM,33.8,27.0,76,30.18,10.0,East,3.5,-,N/A,,Mostly Cloudy,80,2012-11-05 04:15:00
10:35 PM,32.0,27.1,82,30.19,10.0,East,3.5,-,N/A,,Mostly Cloudy,90,2012-11-05 04:35:00
10:55 PM,32.0,27.3,83,30.19,10.0,East,4.6,-,N/A,,Mostly Cloudy,80,2012-11-05 04:55:00